Wind_Speed
43 42 41 40 39 39 39 39 38 38 38 38 37 36 35 36 39 42 44 44 42 40 39 38 37 38 39 41 43 43 43 43 44 47 51 54 56 58 59 59 60 60 61 62 64 64 65 65 65 63 59 57 56 56 57 57 58 59 61 61 58 55 53 52 52 52 51 50 50 52 54 55 55 55 54 53 52 52 51 51 50 51 51 52 53
45 45 45 44 43 43 42 42 41 40 39 39 39 38 37 36 37 39 43 44 44 43 42 40 39 38 38 39 41 43 44 44 44 45 46 49 52 54 56 58 58 59 59 60 61 62 63 63 64 64 63 62 61 60 61 61 61 61 60 58 56 55 53 53 52 51 51 49 49 50 52 54 55 55 54 53 52 51 50 50 50 50 51 51 52
43 44 44 44 45 45 45 44 44 43 42 42 41 40 39 38 36 37 40 43 45 45 44 42 41 40 39 39 39 41 43 44 45 46 46 46 47 49 51 53 55 57 59 60 61 61 62 63 63 64 64 63 63 62 62 60 59 58 56 55 54 53 52 51 50 50 50 48 47 47 49 50 52 53 52 52 50 49 48 47 47 47 47 48 49
40 41 42 42 43 43 44 45 44 44 44 44 44 43 41 40 38 37 38 41 44 45 44 44 43 42 41 40 40 40 41 43 44 45 46 46 47 47 48 49 50 51 53 55 57 58 59 59 60 60 59 58 57 56 55 54 54 53 53 52 51 50 49 48 48 47 47 46 45 45 46 46 48 49 49 49 49 49 48 46 46 46 46 47 48
37 38 39 39 40 41 42 43 44 44 44 44 45 45 44 43 41 39 37 39 42 44 45 44 44 43 42 42 41 40 40 40 42 43 45 46 47 47 48 48 48 49 49 49 50 51 51 51 50 50 50 50 50 50 50 50 50 50 50 49 48 47 46 46 45 45 44 44 44 44 44 45 46 48 49 49 50 51 51 50 49 48 49 49 50
36 37 38 38 39 40 40 42 43 44 45 45 45 46 46 45 44 42 40 38 40 43 45 45 44 44 43 42 42 41 41 40 40 41 42 44 45 46 47 48 48 49 49 48 48 48 48 48 47 47 47 48 48 48 48 48 48 48 47 47 46 45 45 44 44 44 44 45 45 45 46 46 48 49 50 51 52 53 54 54 54 52 52 51 51
36 36 37 38 38 39 40 41 42 44 45 46 46 46 46 46 45 44 42 40 39 41 44 46 45 44 43 42 42 42 42 41 40 40 41 42 43 44 45 47 47 48 48 48 49 49 48 48 48 48 48 47 48 48 48 48 47 47 46 45 45 45 44 44 44 45 45 46 47 48 48 48 49 50 52 53 53 54 55 56 56 55 53 51 51
38 38 38 38 38 39 40 40 42 43 45 46 47 47 47 46 45 44 43 42 41 40 42 45 46 45 45 44 42 42 42 42 42 41 41 41 42 42 43 44 45 47 47 48 48 48 48 48 48 48 48 47 47 47 47 47 46 46 45 45 45 45 45 46 46 46 47 48 49 49 49 49 50 51 52 53 54 55 56 56 56 56 54 53 51
40 40 40 40 40 40 40 40 41 43 45 47 47 48 48 47 46 44 43 42 42 41 42 44 46 46 45 45 44 43 42 41 41 42 42 42 42 42 42 43 44 45 46 46 47 47 47 47 48 48 47 46 46 46 47 47 46 46 46 46 46 47 46 47 47 47 48 49 49 49 50 51 51 52 53 54 55 55 55 56 57 57 56 55 53
41 41 42 42 42 42 42 42 42 44 46 47 47 47 47 47 46 45 43 41 41 42 42 43 45 47 46 45 45 44 43 42 41 41 42 43 43 43 42 42 43 44 45 45 45 46 46 46 47 47 47 47 47 47 47 47 47 47 48 48 47 47 47 47 47 48 49 50 50 51 52 52 52 53 54 54 54 55 56 57 58 58 58 57 56
42 42 42 43 43 44 44 43 44 45 46 47 46 46 46 46 45 45 44 41 40 41 42 43 44 46 47 45 45 44 44 44 43 42 41 42 43 44 44 43 43 43 44 45 45 45 46 46 47 47 48 48 48 48 49 49 49 49 49 49 48 48 48 49 49 50 51 51 51 52 53 53 53 53 53 53 54 55 55 56 57 58 58 58 56
44 43 43 43 44 44 45 45 45 45 46 47 46 45 46 45 45 44 44 42 40 40 41 43 44 45 46 46 45 44 44 44 44 43 42 42 43 43 44 44 44 44 45 45 45 46 46 47 47 48 48 49 49 49 50 50 50 50 51 50 50 50 50 51 51 51 52 52 52 53 53 53 53 53 53 53 53 53 53 54 55 56 56 57 56
45 44 44 44 44 44 44 45 45 46 46 47 47 46 46 46 45 44 43 42 40 39 39 41 43 43 44 44 44 44 43 43 43 44 44 44 43 43 43 43 44 45 46 47 47 48 48 49 49 49 50 50 51 52 52 52 53 53 53 53 53 52 52 52 52 52 52 52 53 53 53 52 52 52 51 51 51 51 52 53 53 54 54 55 54
45 45 45 45 45 45 44 45 45 46 46 47 48 47 46 47 46 45 43 41 40 39 38 39 41 42 42 42 43 43 42 43 43 43 44 44 44 43 43 43 44 44 45 46 47 48 49 50 51 52 52 53 53 54 54 54 54 53 53 52 52 52 52 52 52 52 52 52 52 52 51 51 50 50 49 49 49 50 51 51 51 52 52 53 54
46 46 46 46 45 45 45 45 45 45 46 47 47 47 46 47 46 45 43 41 39 38 37 36 38 40 40 40 41 41 41 42 42 43 44 44 43 42 43 43 44 44 44 44 45 46 47 47 48 50 50 51 51 51 51 51 51 50 50 49 49 49 49 50 49 50 50 50 50 51 50 50 50 49 49 49 49 49 49 50 50 51 53 54 56
48 47 47 46 46 46 46 46 46 45 46 47 47 47 47 47 46 44 42 40 38 36 36 35 36 38 38 38 39 40 40 40 41 42 43 43 42 41 41 43 44 44 44 44 44 44 45 45 46 46 47 48 48 48 48 48 48 48 47 47 47 47 47 48 48 48 49 49 50 50 50 50 50 50 50 50 50 50 50 51 52 53 54 56 57
49 49 48 48 47 47 47 48 47 46 46 46 47 47 47 47 46 44 42 39 37 35 34 34 34 35 36 36 36 37 38 38 39 40 42 42 41 40 40 41 42 42 43 44 44 44 44 44 44 45 45 46 46 46 46 46 47 47 47 47 47 47 47 47 48 48 49 49 49 49 50 50 50 50 51 51 52 52 52 53 54 54 55 56 56
49 49 49 49 49 48 48 47 47 46 46 47 47 47 47 47 44 42 40 38 36 34 33 33 33 33 34 34 34 35 36 36 37 38 40 41 40 38 39 40 40 41 42 42 42 42 42 43 43 43 44 45 45 45 46 46 46 46 46 46 46 47 47 47 47 47 48 48 49 49 50 50 50 51 51 52 52 53 53 53 53 53 53 54 54
48 48 48 48 48 48 48 47 47 47 47 47 48 48 47 46 43 40 38 36 35 33 32 32 32 32 32 32 32 34 35 34 35 36 37 39 38 36 36 38 39 39 40 40 40 41 41 41 42 42 43 43 43 44 44 45 45 45 45 46 46 46 46 46 46 46 46 47 47 48 49 50 50 50 50 51 51 51 51 51 51 51 52 52 53
47 46 46 47 47 48 48 48 47 47 47 48 48 48 46 44 40 37 35 34 33 32 31 31 30 30 30 30 31 32 33 33 34 35 35 36 36 34 33 36 37 37 38 38 39 39 40 40 40 41 41 41 42 42 43 44 45 45 45 45 45 45 45 45 45 45 45 46 47 47 48 48 49 49 49 49 49 49 50 50 50 51 51 51 52
46 46 47 47 48 49 49 49 48 47 47 47 47 46 44 40 37 35 33 32 31 31 30 29 29 28 29 29 29 30 31 32 32 33 33 34 35 34 32 33 35 35 35 36 36 37 37 38 38 38 39 39 40 40 42 43 43 44 44 44 44 45 45 45 45 45 44 45 45 45 46 46 46 46 47 47 48 48 49 49 50 50 50 50 51
49 50 50 51 51 51 50 49 48 46 45 45 44 43 40 37 34 33 31 30 29 29 29 28 27 27 27 28 28 28 29 30 31 31 32 32 33 33 32 32 33 34 34 33 34 35 35 35 34 34 35 37 37 38 39 40 41 41 42 42 43 43 43 43 43 43 42 42 43 43 43 43 43 44 44 45 46 47 47 48 48 49 49 49 49
55 55 54 54 52 51 49 47 46 44 43 42 41 39 36 33 32 30 29 28 28 27 27 26 26 25 25 26 26 26 27 28 29 29 30 30 31 31 31 31 31 32 32 32 32 33 33 32 31 31 33 34 34 34 35 36 36 37 38 39 39 39 39 40 40 40 40 41 41 41 42 42 42 42 43 44 45 45 46 46 47 47 47 48 49
56 54 52 50 49 47 45 43 42 41 39 38 37 35 32 30 29 27 27 26 26 25 24 24 24 23 23 24 24 24 25 26 27 27 28 29 29 29 30 29 28 28 30 30 30 30 30 30 30 30 30 31 31 31 31 32 33 34 35 36 36 36 37 37 38 39 39 40 40 40 40 41 41 42 42 43 44 44 44 44 44 45 46 46 47
50 47 46 44 42 40 39 37 36 36 35 33 33 31 29 27 26 25 24 24 23 22 21 21 21 21 21 22 22 22 22 24 25 26 26 27 27 27 27 26 26 25 26 27 27 27 28 28 28 28 28 29 29 29 29 30 31 32 33 33 34 34 35 35 36 36 37 38 38 39 39 39 39 40 41 41 41 42 42 42 42 42 43 44 45
45 43 42 39 36 34 33 33 32 31 30 29 29 27 26 25 24 22 22 21 20 19 19 19 19 19 19 20 21 20 20 22 24 24 25 25 24 24 24 23 23 23 24 24 25 26 26 26 26 27 28 28 28 28 28 29 29 30 31 31 32 32 32 33 34 34 35 36 36 37 38 38 38 38 38 38 39 39 39 40 40 40 41 42 42
42 40 38 35 32 31 31 30 29 28 27 26 25 24 23 23 21 20 19 19 18 17 17 17 17 18 18 19 20 19 20 22 23 23 23 23 22 22 21 21 21 22 22 23 23 24 24 25 26 27 27 27 27 27 28 28 29 29 29 30 30 31 31 32 32 33 34 35 35 36 37 37 38 37 37 37 37 37 38 39 40 41 40 40 40
38 37 35 33 31 30 28 27 26 25 24 23 22 21 21 20 19 18 17 17 17 16 16 16 16 17 18 19 18 18 20 22 21 21 21 21 21 20 20 20 20 21 21 21 22 22 24 25 25 26 26 26 26 27 28 28 29 29 29 29 30 31 31 31 32 33 34 34 35 35 36 37 37 38 37 37 37 38 38 38 39 40 40 40 40
35 33 32 30 28 27 26 24 23 22 21 20 20 19 19 18 17 16 16 16 16 15 15 15 16 17 17 17 17 18 20 20 19 19 20 20 20 19 19 19 19 20 21 21 21 22 23 24 24 24 25 25 25 26 28 29 29 29 30 30 30 31 32 32 32 33 33 34 34 34 35 36 37 37 37 37 37 37 37 37 38 38 39 40 40
32 30 29 28 26 25 24 22 21 20 19 19 18 17 17 17 16 15 15 15 15 14 14 15 16 16 16 16 16 17 18 18 17 18 19 19 18 18 17 18 19 20 20 20 20 21 22 23 23 23 24 25 25 26 28 29 30 30 30 30 31 32 32 33 33 33 34 34 34 35 35 36 37 37 38 37 38 38 37 37 37 38 38 39 40
30 28 27 26 25 24 22 21 20 19 18 17 16 15 15 15 15 14 14 14 14 14 14 15 15 15 14 15 16 17 17 17 16 17 18 18 17 17 17 18 18 19 19 20 20 21 21 22 22 23 24 25 26 27 28 29 30 30 31 31 31 31 32 32 32 33 34 35 35 35 35 36 36 37 37 37 37 37 37 37 36 36 37 37 37
29 27 26 25 23 23 21 20 19 18 17 16 16 15 14 14 14 13 14 14 13 13 14 14 14 14 14 15 16 16 16 16 16 17 18 18 17 16 17 17 17 18 19 20 20 20 20 21 23 24 24 25 26 27 27 28 28 29 30 30 30 29 29 30 31 32 33 33 33 33 33 34 34 34 35 35 34 34 35 34 34 34 33 34 34
28 26 25 24 23 21 20 19 18 17 17 16 15 15 14 14 13 13 13 14 13 13 13 14 14 13 14 15 15 16 16 16 16 17 18 17 16 16 17 17 17 18 19 19 19 19 20 21 22 22 23 23 23 24 25 26 27 28 29 30 30 28 27 28 30 31 31 31 31 31 30 30 30 31 31 31 31 31 31 31 31 31 31 32 32
27 26 25 24 22 21 20 19 18 17 17 16 15 15 15 14 13 12 13 13 13 13 13 13 13 13 14 14 15 15 16 15 16 17 18 16 15 15 17 17 17 17 18 18 18 19 19 19 20 20 21 21 22 23 24 25 26 27 28 29 29 27 26 27 28 29 29 29 29 29 28 28 28 29 29 29 29 29 30 30 30 30 30 31 31
26 25 24 23 22 21 20 19 19 18 17 16 16 15 15 15 14 13 12 13 13 13 13 13 14 14 14 14 15 16 16 16 16 18 17 16 15 17 17 17 17 17 17 18 18 18 18 19 19 19 20 21 21 22 23 24 24 25 26 27 27 26 26 26 26 26 27 28 28 28 27 27 27 28 28 28 28 29 29 29 29 30 30 30 31
27 26 25 24 22 21 21 20 20 19 18 17 16 16 15 15 15 14 13 13 13 13 13 13 14 14 14 14 14 15 16 16 17 17 17 16 17 18 18 17 17 17 17 17 18 18 18 18 19 19 20 21 21 22 22 23 23 24 24 25 25 25 25 25 25 26 27 27 26 27 27 27 27 27 27 28 28 28 28 28 28 29 29 29 30
27 26 25 25 23 22 21 20 20 20 19 18 17 16 16 16 15 15 14 13 13 13 13 13 14 14 15 15 15 16 16 16 17 17 17 17 17 18 18 17 17 17 17 16 17 17 18 18 19 20 21 21 22 22 22 22 23 23 24 24 24 24 24 24 25 26 26 26 25 26 26 26 26 26 26 27 27 27 27 27 27 28 28 28 29
27 26 26 25 24 23 22 21 20 20 20 19 18 17 17 16 16 15 15 14 14 14 14 14 14 15 15 16 16 17 17 17 17 17 17 17 17 18 18 17 17 17 16 16 16 16 18 19 19 20 21 22 23 23 23 23 23 23 24 24 24 23 23 24 24 25 25 24 24 25 25 25 25 25 25 25 25 25 25 26 26 27 27 27 27
27 27 26 25 24 23 22 21 20 20 20 19 19 18 18 17 17 16 16 16 15 15 15 15 16 15 15 16 17 17 17 17 17 17 17 17 17 17 17 17 17 16 16 16 16 16 18 19 19 20 22 23 23 24 24 23 23 23 23 24 23 23 23 23 24 24 23 23 23 23 23 24 24 24 24 24 23 23 24 24 24 25 25 24 23
27 27 26 26 25 24 22 21 20 20 19 19 19 18 18 18 18 17 17 17 17 17 16 16 17 17 17 17 17 17 17 17 17 17 17 17 17 17 17 17 17 16 17 17 17 17 18 19 19 20 21 22 23 23 24 23 23 23 23 23 23 23 22 23 23 23 23 22 22 22 22 22 22 22 22 22 22 22 22 22 22 21 21 21 20
28 27 26 26 25 24 23 22 21 20 20 19 19 19 18 18 18 18 18 18 18 18 18 18 18 18 18 18 18 18 18 18 18 17 17 17 17 18 18 18 17 17 17 17 18 18 19 19 19 20 20 21 22 23 23 23 23 23 23 23 23 22 22 22 22 22 22 21 21 21 21 21 21 21 20 20 21 20 20 19 19 18 17 17 17
30 28 27 26 26 25 24 23 22 22 21 20 19 20 19 19 19 19 19 19 19 19 19 19 19 19 19 19 19 19 18 19 19 18 18 18 18 18 18 18 18 18 18 18 18 18 19 19 19 19 20 21 21 22 23 22 22 22 22 22 22 22 22 22 21 21 21 21 20 20 20 20 20 19 19 18 18 18 17 16 16 15 15 15 14
31 30 29 27 26 26 25 24 23 23 22 21 20 20 20 20 20 20 20 20 20 20 20 20 20 20 19 19 20 19 19 19 20 19 19 19 19 19 19 19 18 19 19 19 19 19 19 19 19 19 19 20 21 21 22 21 21 21 21 21 21 21 21 21 21 20 20 20 20 19 19 19 18 18 17 16 15 14 14 13 13 12 12 12 12
33 32 30 29 28 27 26 25 24 23 23 23 22 21 21 21 21 21 21 21 21 21 21 21 21 20 20 20 20 20 20 20 20 20 20 20 19 19 20 19 19 20 20 20 20 20 20 20 19 19 19 20 20 20 21 21 20 20 20 20 20 20 20 21 21 19 19 19 19 18 17 17 16 15 14 13 12 11 11 11 10 10 10 9 8
33 32 31 30 29 28 27 27 26 25 24 23 23 23 23 22 22 22 22 22 22 22 22 22 22 21 21 20 21 21 21 21 21 20 20 20 20 20 20 20 20 20 20 20 21 21 21 21 20 20 20 20 20 20 20 20 20 19 19 19 19 19 19 19 19 18 18 18 17 17 16 15 14 13 11 10 10 9 8 8 8 7 7 6 6
32 32 32 31 30 29 28 28 27 26 25 24 24 23 23 24 23 23 23 23 23 23 23 22 23 23 22 21 21 21 22 22 21 21 21 21 21 21 21 20 20 20 21 21 21 22 22 22 21 21 21 20 20 20 20 20 19 19 18 18 18 18 18 18 18 17 17 16 16 15 13 12 11 10 9 8 7 6 6 5 5 5 5 6 7
32 31 31 30 30 30 29 29 28 28 27 26 25 24 24 24 24 24 24 23 24 24 24 24 23 23 23 23 23 22 22 22 22 22 21 21 21 21 21 20 20 20 21 21 21 22 22 22 22 21 21 21 20 20 20 19 19 18 17 17 17 17 16 16 16 16 15 14 13 12 11 10 9 8 7 6 5 4 4 4 3 4 6 7 10
32 32 30 30 30 29 29 29 29 29 28 28 27 26 25 25 24 24 24 24 24 24 24 24 24 24 24 24 23 23 23 23 22 22 22 21 21 21 21 21 20 20 21 21 21 21 21 21 21 21 22 21 20 20 19 19 18 18 17 16 16 16 15 15 15 14 13 12 11 10 9 8 7 6 5 4 4 4 3 3 4 5 8 10 12
33 32 31 30 29 28 28 29 29 29 29 29 28 28 27 26 25 25 25 24 24 24 24 24 25 25 24 24 24 23 23 23 23 22 22 21 21 21 21 21 21 20 20 20 20 20 20 20 20 21 21 21 20 20 19 18 17 17 16 16 15 15 14 14 13 12 11 10 10 9 8 7 6 6 5 5 4 4 3 4 5 8 10 12 13
33 32 31 29 28 28 27 27 28 28 28 29 29 29 29 28 27 27 26 25 25 24 24 24 24 24 24 24 24 24 23 23 23 23 22 22 21 21 21 21 21 20 20 20 19 19 19 19 19 20 20 20 19 19 18 17 16 15 15 15 14 14 13 12 11 11 10 9 9 8 8 7 7 6 6 5 5 4 4 6 8 10 11 11 12
33 31 30 29 28 27 26 26 26 26 27 27 28 28 29 29 29 29 28 27 27 26 25 25 25 25 25 25 25 24 24 24 24 24 23 23 22 21 21 21 21 20 20 19 19 19 19 18 18 18 19 19 18 18 17 16 15 14 14 14 14 13 12 11 10 10 9 9 9 8 8 8 8 7 6 5 4 4 5 7 9 9 10 11 12
Wind_Direction
306 305 305 304 304 304 305 305 304 302 300 297 293 289 283 278 276 276 278 279 278 275 272 270 269 266 263 261 258 256 254 250 248 246 246 246 247 247 247 247 249 249 249 249 247 245 246 248 248 249 249 247 246 247 249 253 257 260 264 266 266 264 264 264 261 258 257 256 257 258 260 261 262 261 259 258 257 258 258 258 259 259 260 260 261
305 304 303 302 302 301 301 302 303 302 301 299 296 293 288 282 277 274 273 275 276 276 274 272 270 269 266 263 260 257 255 254 252 250 247 246 246 246 246 246 247 248 249 249 248 246 246 247 248 249 249 250 250 251 253 256 259 260 261 261 261 260 260 261 260 259 259 257 257 257 258 260 262 263 263 262 261 261 260 259 259 259 259 259 259
303 302 301 300 300 299 298 298 298 299 299 298 297 295 291 287 281 274 271 271 273 273 273 272 270 269 268 266 263 259 255 253 252 252 251 249 248 248 248 247 247 248 248 249 249 248 248 248 249 249 250 251 252 253 255 256 257 257 256 255 255 256 256 257 257 257 258 257 257 257 257 258 261 262 264 264 264 262 261 259 259 258 258 258 258
303 301 300 299 298 297 296 295 295 294 295 295 294 294 292 290 285 278 272 269 269 270 270 270 269 269 268 266 265 263 258 255 252 251 251 250 249 249 249 249 249 249 249 250 250 251 251 251 251 251 252 253 253 253 253 252 252 252 252 252 252 253 253 254 254 255 255 256 256 256 256 256 258 261 262 264 264 264 263 261 260 259 258 258 259
306 305 303 301 300 298 297 295 294 292 291 291 291 291 290 289 287 282 275 268 266 267 267 267 266 266 266 265 264 263 261 258 254 252 251 250 250 249 249 249 250 250 251 251 251 252 252 252 252 252 252 252 252 251 250 249 249 249 249 250 250 250 250 251 251 252 253 254 254 255 256 256 257 259 261 263 264 266 266 265 263 261 260 260 259
309 309 308 307 305 304 303 301 298 295 292 290 289 289 288 287 286 284 279 271 265 264 264 264 263 263 262 262 262 261 261 260 257 254 251 250 250 250 249 249 249 249 250 251 252 252 253 253 252 252 251 251 251 251 250 249 248 247 247 248 249 249 250 250 251 252 253 254 255 256 257 258 259 260 261 262 264 265 266 266 265 263 262 261 261
309 310 310 310 310 310 309 308 306 302 297 294 291 290 287 286 284 283 281 275 267 261 260 261 261 260 259 258 258 258 258 258 258 256 253 251 250 249 249 249 249 249 249 249 250 251 251 252 251 251 250 249 249 249 248 248 247 246 247 247 248 249 251 252 252 254 255 256 257 258 258 259 260 261 262 263 263 263 264 265 266 265 264 263 263
308 309 310 310 311 312 312 311 311 309 306 301 297 294 291 287 284 281 280 277 271 262 258 258 259 258 257 255 254 254 254 254 255 255 254 252 250 249 248 248 248 248 248 248 248 249 249 249 249 249 249 248 247 247 246 246 246 246 247 248 249 250 252 253 254 256 257 257 258 258 259 259 260 260 261 262 263 264 265 266 267 267 266 264 263
308 308 309 309 310 311 312 313 313 313 312 309 304 300 296 292 287 282 278 277 273 266 258 255 256 257 256 254 252 251 250 250 250 251 252 252 251 250 248 247 247 247 247 246 246 246 247 247 247 247 246 246 245 244 244 245 245 246 247 248 249 251 252 254 255 256 257 258 259 259 259 260 260 261 261 262 264 265 266 266 266 266 266 265 263
307 308 308 309 309 310 311 313 314 314 314 312 309 306 302 296 291 285 280 276 273 268 260 255 253 254 254 253 252 250 249 248 248 247 248 249 250 250 249 248 247 246 246 246 246 246 246 246 246 246 246 245 244 244 244 244 244 246 247 248 250 251 253 255 257 258 259 260 260 260 260 261 261 261 262 262 263 263 263 264 264 265 265 265 264
307 307 308 308 309 309 310 311 313 314 314 311 309 308 305 300 295 289 283 278 273 268 262 256 252 252 253 252 251 250 249 248 247 247 246 245 246 247 248 248 247 247 246 246 246 245 245 245 245 245 245 245 245 244 244 244 246 247 249 250 252 255 258 260 262 262 262 262 261 261 261 261 261 261 261 261 261 261 261 262 262 263 263 264 264
305 306 306 307 308 308 308 310 311 311 311 309 307 307 307 303 297 291 285 280 274 268 262 257 253 251 251 251 251 250 249 248 247 247 247 246 244 244 244 245 246 247 247 247 247 246 246 245 245 245 245 245 246 246 247 249 251 252 253 256 258 261 263 264 264 264 263 262 261 261 261 261 260 259 260 260 259 259 260 260 260 261 262 263 264
302 304 305 306 306 306 307 308 309 309 308 307 306 307 308 305 299 293 288 282 277 270 263 258 253 251 250 250 250 249 249 248 247 247 247 247 246 246 245 244 244 244 245 246 247 247 247 247 247 247 247 248 249 250 252 254 256 257 258 260 262 263 264 264 264 263 262 262 261 261 261 260 259 258 258 258 258 259 259 259 260 261 262 262 263
300 302 304 305 305 305 306 306 307 306 306 305 305 306 308 306 301 294 289 284 279 272 265 259 254 251 249 249 249 248 248 247 247 247 247 247 247 248 248 247 246 245 244 245 245 246 247 248 248 248 249 250 251 252 254 255 256 257 258 260 261 261 261 261 261 260 260 260 260 260 259 258 258 257 257 257 257 258 258 259 259 260 261 261 261
298 300 302 304 304 305 305 305 304 304 303 302 303 305 307 306 301 294 289 285 280 274 268 261 256 252 250 249 248 248 247 247 247 247 247 247 247 247 248 249 249 248 247 247 247 247 248 248 249 249 249 250 251 252 253 254 255 256 257 257 258 258 258 257 257 257 257 257 257 257 257 257 256 256 256 256 256 256 257 257 258 258 259 259 260
298 300 301 302 302 303 303 303 302 302 302 302 302 304 306 305 301 294 288 284 280 275 270 265 258 253 250 249 248 247 247 247 247 247 247 247 246 247 247 248 249 249 250 250 250 250 251 251 252 252 252 252 253 254 254 254 255 255 256 256 256 256 256 256 256 257 257 257 257 257 256 256 256 255 255 255 255 255 255 255 256 257 258 260 261
298 299 300 300 300 300 300 300 301 301 301 301 302 303 304 303 299 293 288 283 279 274 271 267 262 255 250 248 248 248 247 246 247 247 247 247 246 246 247 248 249 249 250 250 251 251 252 253 254 254 255 255 256 256 256 256 256 256 256 256 256 256 257 257 257 257 258 257 257 257 257 256 256 256 256 256 256 256 256 256 257 258 259 261 263
298 299 299 299 299 297 297 298 299 300 300 300 301 302 302 301 296 290 286 282 277 273 270 268 264 259 253 249 248 248 247 247 246 247 248 248 247 246 247 248 248 249 250 251 251 252 252 253 254 254 255 256 257 257 257 257 257 258 258 258 258 258 258 258 258 258 258 258 258 258 258 257 257 257 258 258 258 258 258 259 260 260 261 262 263
299 299 299 299 298 297 297 297 298 299 300 300 300 301 300 298 293 288 284 280 276 272 270 267 264 262 257 251 248 247 247 246 246 246 247 248 247 246 247 248 248 248 249 251 251 252 253 253 254 255 256 256 257 257 258 258 258 257 258 258 258 258 259 259 259 259 258 258 259 259 259 259 259 259 259 259 260 260 260 260 260 261 262 263 263
300 299 298 298 297 297 297 297 298 298 299 299 299 299 298 295 291 286 282 278 273 271 269 266 264 262 259 253 249 247 246 246 245 245 246 248 248 246 245 246 248 248 248 249 250 251 252 253 254 255 256 257 258 258 259 259 259 258 258 258 259 259 259 259 259 259 258 258 258 259 259 259 259 260 260 260 260 260 260 261 261 261 262 263 264
300 299 299 298 297 297 297 297 297 298 298 298 297 297 295 292 288 285 281 275 271 269 268 266 263 261 258 254 250 247 247 246 246 245 246 247 248 248 246 246 247 248 248 249 249 250 251 252 253 254 255 255 256 257 258 259 259 259 259 259 259 259 259 259 258 258 258 258 258 258 259 259 259 260 260 260 261 261 261 261 261 261 262 262 263
302 300 299 298 296 296 297 297 297 297 296 295 295 294 292 289 286 283 279 274 270 268 267 265 262 259 256 253 250 247 246 246 246 245 246 246 248 249 248 247 248 248 249 250 250 251 252 253 253 253 253 254 253 254 255 256 257 258 258 258 258 258 259 259 259 259 258 258 258 257 257 258 258 258 258 259 260 260 261 262 262 263 263 263 264
302 300 298 297 296 295 296 296 296 296 295 294 293 292 290 288 285 281 277 274 270 268 266 264 261 258 254 251 248 245 245 245 245 245 245 245 246 247 247 247 247 249 250 251 251 252 253 254 253 253 253 254 254 254 254 255 256 256 257 257 257 257 258 258 257 257 256 256 256 256 256 256 256 256 256 257 258 259 260 262 263 264 265 266 267
304 302 301 299 297 296 296 295 295 294 294 293 292 291 289 287 283 280 277 273 270 268 265 262 259 256 252 249 246 244 243 243 243 242 243 243 244 245 246 246 246 247 249 251 252 253 254 254 254 254 254 255 256 256 256 255 255 256 256 256 256 256 256 256 256 256 256 256 256 256 256 257 257 257 257 258 258 259 260 261 262 263 264 265 267
307 307 305 304 302 299 298 296 294 294 293 293 292 290 288 285 281 279 276 273 270 267 263 259 257 253 250 247 244 241 239 239 240 240 240 241 242 243 245 246 246 246 248 250 252 253 253 254 255 255 255 255 255 255 255 254 254 254 255 255 255 256 256 256 257 257 257 257 258 257 257 257 257 258 259 260 261 261 261 261 261 262 263 264 265
309 309 309 309 307 304 301 298 295 294 293 292 291 289 287 284 281 278 274 271 268 264 260 257 254 250 247 246 243 238 234 235 237 238 239 239 240 241 243 244 245 246 246 248 250 251 253 254 255 255 255 256 255 255 255 255 255 255 255 256 256 256 257 257 258 258 258 258 259 259 259 259 259 259 260 260 262 262 263 263 262 261 261 262 263
310 310 311 312 310 306 303 300 298 297 296 294 291 288 285 283 280 277 273 269 266 262 258 255 252 248 245 244 242 238 234 233 234 235 237 238 239 240 241 242 243 244 245 246 247 250 251 252 253 254 255 256 258 258 258 258 258 258 258 258 258 258 257 257 258 258 259 259 259 260 261 261 261 261 260 260 260 260 261 262 263 263 262 262 262
312 312 312 311 309 306 304 302 300 299 298 295 292 289 285 282 278 275 271 268 264 260 256 254 251 248 245 243 242 239 236 235 235 235 237 238 238 239 240 241 242 243 244 246 247 248 250 251 252 254 256 257 259 261 261 261 261 261 261 260 260 260 260 259 258 259 259 260 260 261 262 263 263 263 262 262 261 261 261 261 263 264 266 266 265
316 316 315 313 310 308 306 304 302 300 298 295 291 289 286 281 277 273 269 266 263 258 255 252 249 247 245 243 241 238 237 237 237 236 237 238 238 238 238 240 242 243 244 244 245 247 249 251 253 255 257 258 259 260 261 262 262 263 263 263 263 263 263 263 263 262 262 263 263 264 264 264 265 265 265 265 265 265 264 264 265 266 267 267 268
321 320 318 316 313 312 310 308 305 302 299 295 291 288 286 282 278 273 268 265 262 259 254 251 249 247 246 244 241 239 239 238 236 236 237 238 238 238 238 239 240 243 245 246 246 248 251 254 256 258 260 260 261 261 262 263 263 263 264 264 264 264 264 264 264 265 265 265 265 265 265 265 266 267 268 268 269 269 269 268 268 267 267 267 268
325 324 322 320 318 316 314 311 307 304 301 297 294 290 286 281 278 274 268 264 261 258 254 251 249 247 244 241 240 240 240 239 237 238 239 240 238 238 239 240 241 244 247 248 249 250 253 256 258 259 260 261 262 262 263 263 264 265 264 263 263 263 264 264 264 264 264 264 263 263 264 265 266 267 267 268 269 269 269 269 268 268 268 268 268
328 329 327 325 323 320 316 313 309 306 303 300 297 294 288 282 279 274 269 264 260 256 254 252 249 246 242 239 240 241 241 241 241 242 243 243 241 240 241 243 244 246 248 249 252 254 256 258 260 261 262 263 264 265 266 267 267 268 268 267 266 265 266 267 266 265 264 264 264 265 265 265 265 266 266 267 267 268 268 268 268 268 269 269 270
331 332 331 329 328 324 320 317 313 309 306 303 300 297 292 287 281 274 269 265 260 256 254 252 249 244 241 240 242 242 243 242 243 245 245 245 244 244 245 245 246 249 252 255 258 260 261 262 264 265 266 266 267 269 270 271 271 272 272 273 272 271 270 269 269 268 268 268 268 267 267 267 267 267 267 268 268 268 269 269 269 270 270 271 272
333 332 331 330 329 327 324 320 316 312 308 304 301 298 294 290 285 276 268 264 261 257 254 252 250 246 243 243 244 245 245 245 246 248 249 249 249 251 251 251 253 256 259 262 263 264 265 266 266 267 268 269 269 270 270 272 273 274 275 275 275 275 273 271 269 270 270 271 270 270 269 269 269 269 269 269 270 270 271 271 272 274 275 275 276
332 331 330 329 328 326 324 321 317 313 309 304 301 298 294 290 286 279 271 264 260 258 256 254 252 249 246 244 244 245 247 246 247 250 253 255 256 257 258 259 261 262 263 263 263 263 264 264 265 266 267 269 271 272 273 273 273 274 274 275 275 275 274 272 271 270 270 270 271 271 270 269 269 269 270 270 271 271 272 274 275 276 277 277 278
329 329 328 328 327 324 322 319 316 312 309 305 301 297 293 289 285 281 276 269 261 257 255 255 256 256 253 250 247 247 248 248 248 251 254 255 256 258 259 260 261 261 261 261 263 264 264 265 267 269 270 271 272 273 274 275 274 274 274 273 273 272 272 272 271 270 269 269 269 269 269 269 269 269 270 270 271 272 274 275 276 277 278 279 280
325 325 325 324 324 323 321 318 314 311 308 305 300 296 292 289 284 281 277 273 268 264 258 254 254 256 257 257 255 253 252 253 253 255 256 255 256 258 260 259 259 258 258 258 261 264 267 270 272 274 275 276 276 275 275 275 274 274 273 272 271 271 270 270 270 270 270 270 269 268 268 269 269 270 270 271 272 274 275 276 276 277 278 279 280
324 323 322 321 321 320 319 316 312 309 307 304 300 296 291 287 284 281 277 273 271 269 266 262 259 256 256 258 259 257 256 255 256 258 260 259 258 259 260 260 259 259 259 259 260 263 268 272 275 276 277 278 278 278 277 275 274 274 274 273 272 271 271 271 270 270 271 271 270 269 269 268 269 270 270 271 273 274 275 276 277 279 281 282 283
323 321 320 318 317 317 316 313 310 307 304 302 299 296 292 288 284 281 277 274 271 269 268 268 267 265 261 259 259 259 259 258 259 260 261 261 261 261 261 261 262 263 264 265 265 267 270 273 275 276 277 278 279 279 278 277 275 275 274 274 274 273 272 272 272 271 271 271 270 270 269 268 268 269 270 272 273 274 274 276 278 280 282 283 284
322 320 319 317 315 314 313 311 308 304 301 299 297 294 292 289 285 282 278 275 273 270 269 269 269 269 268 265 263 262 263 263 264 265 265 265 266 266 265 265 266 267 269 271 272 273 274 275 276 277 279 281 282 282 281 280 277 275 274 274 274 273 272 272 272 271 271 271 270 269 268 268 268 269 270 272 274 275 277 279 280 281 282 284 286
319 318 317 315 313 312 310 308 305 302 300 297 294 292 289 286 284 282 279 275 273 271 269 268 267 268 269 268 267 267 268 269 271 270 269 269 268 268 268 269 268 269 270 271 273 275 277 279 281 283 284 285 285 284 283 281 277 274 273 273 273 272 271 271 270 271 272 271 269 268 267 267 269 270 272 274 276 277 279 280 281 282 284 286 288
315 314 314 313 311 310 308 305 303 301 298 295 292 290 288 285 282 280 278 276 274 272 270 268 267 266 266 266 266 266 267 269 271 272 272 271 270 268 268 268 268 269 270 270 271 274 277 280 283 284 285 285 285 285 283 281 277 274 273 272 271 271 270 269 269 270 271 271 269 268 268 269 270 271 273 275 276 277 278 279 281 283 285 287 290
311 310 310 309 307 307 305 303 301 298 295 293 290 287 286 284 282 280 278 276 274 272 270 268 267 265 265 265 265 265 264 266 267 268 268 269 269 268 268 268 268 268 269 270 272 275 277 280 282 284 285 285 286 285 284 282 278 274 272 271 270 269 269 268 268 268 269 269 268 268 269 270 271 272 273 273 273 274 276 278 280 283 286 288 291
308 307 307 305 304 302 301 300 298 296 293 291 289 286 283 281 280 279 278 276 274 273 271 268 266 265 263 263 264 264 264 265 266 267 268 268 268 269 270 270 270 270 270 272 274 275 277 280 283 285 287 287 287 286 285 282 279 275 272 271 269 268 267 267 267 267 267 267 267 268 268 269 270 270 270 270 270 271 274 277 280 284 286 289 293
306 304 303 302 301 299 297 296 294 293 292 290 287 285 283 281 279 277 277 275 274 273 272 270 268 266 264 262 262 264 265 265 266 268 270 270 271 271 271 271 272 272 272 274 275 276 278 280 282 285 287 288 288 287 285 283 280 277 273 271 269 267 265 265 266 267 266 265 266 266 266 266 266 266 266 268 269 271 273 276 278 281 285 289 295
306 304 302 300 298 297 295 293 291 289 288 287 286 284 282 281 280 278 277 276 275 274 272 271 270 268 266 264 263 263 264 266 267 268 269 270 271 272 272 273 273 273 273 274 274 275 277 279 282 284 287 288 288 287 285 284 282 278 274 270 268 265 263 264 265 265 264 263 264 264 262 260 259 259 259 261 263 264 266 268 271 277 286 294 300
307 305 302 299 296 294 292 290 288 286 284 283 282 281 280 279 279 277 276 275 274 273 272 270 268 267 266 265 263 262 263 264 266 267 268 269 270 271 272 273 273 274 274 274 274 274 276 278 280 283 285 287 288 287 285 284 283 279 275 270 265 263 263 262 262 262 262 261 260 259 256 253 252 252 251 250 249 245 244 249 258 275 288 298 304
309 307 304 301 297 294 290 288 286 284 282 280 279 277 277 276 275 275 274 273 272 271 270 268 266 265 264 263 263 263 263 264 265 267 268 269 270 271 272 272 273 273 274 274 274 274 275 277 278 281 283 286 287 286 284 283 282 279 274 268 264 261 260 259 258 258 258 255 252 250 247 244 241 237 231 225 217 213 221 239 261 283 295 302 307
312 310 307 304 300 295 291 288 285 283 281 279 276 275 274 273 272 272 271 270 269 268 267 266 266 265 263 262 262 262 262 263 264 266 267 268 268 270 270 271 271 272 273 274 274 275 275 276 277 278 281 284 285 285 284 283 281 276 270 265 261 257 255 254 254 253 249 245 241 237 231 226 219 210 200 196 196 203 226 257 281 296 302 306 308
313 311 308 305 302 298 294 290 287 284 281 279 276 274 272 270 269 269 269 268 268 267 265 264 264 264 263 262 262 261 262 263 264 265 266 266 266 267 269 269 270 271 273 274 274 275 275 274 274 275 278 281 282 282 282 281 278 272 266 261 256 253 251 250 248 243 237 231 226 220 212 203 195 187 183 185 196 218 254 282 296 302 305 306 308
313 311 309 306 304 301 298 294 291 288 284 281 278 275 272 269 268 267 266 266 266 265 264 264 263 262 263 262 262 261 262 262 263 264 264 264 264 265 266 267 268 270 271 272 274 274 274 273 273 274 276 278 279 279 278 277 273 268 261 255 250 248 246 242 237 230 224 216 208 200 193 186 181 179 180 190 213 250 281 293 299 302 304 306 309
Height
2958 2956 2954 2952 2950 2948 2946 2944 2943 2943 2942 2942 2941 2940 2940 2940 2939 2938 2938 2937 2937 2937 2937 2937 2937 2937 2937 2937 2937 2937 2938 2939 2941 2943 2944 2946 2948 2950 2951 2953 2954 2956 2958 2960 2962 2965 2967 2969 2971 2973 2975 2977 2978 2980 2982 2983 2985 2986 2986 2987 2988 2990 2991 2991 2992 2994 2996 2999 3000 3000 3000 3001 3002 3005 3008 3011 3013 3015 3017 3019 3021 3022 3023 3023 3024
2953 2951 2950 2948 2946 2944 2942 2940 2938 2937 2936 2936 2935 2934 2934 2934 2933 2933 2932 2931 2931 2930 2930 2931 2931 2931 2931 2931 2931 2931 2932 2932 2934 2935 2937 2939 2941 2943 2945 2946 2948 2950 2952 2953 2956 2958 2960 2962 2965 2967 2969 2970 2972 2974 2976 2977 2978 2979 2980 2981 2982 2983 2985 2985 2986 2987 2988 2991 2993 2994 2994 2994 2994 2996 2999 3002 3006 3008 3010 3012 3013 3014 3015 3016 3017
2947 2945 2944 2942 2940 2939 2937 2936 2934 2932 2931 2930 2929 2928 2928 2927 2927 2927 2926 2925 2925 2924 2924 2924 2925 2925 2925 2925 2925 2926 2926 2927 2927 2928 2930 2931 2934 2936 2938 2939 2941 2943 2945 2947 2949 2951 2953 2956 2958 2960 2962 2964 2966 2967 2969 2970 2971 2972 2973 2974 2975 2976 2978 2979 2979 2980 2981 2984 2986 2987 2988 2989 2989 2990 2992 2994 2997 2999 3002 3004 3006 3007 3008 3009 3010
2940 2939 2938 2936 2935 2933 2931 2930 2928 2927 2926 2924 2923 2922 2921 2920 2920 2920 2920 2920 2919 2918 2918 2918 2918 2919 2919 2919 2920 2920 2920 2921 2921 2922 2923 2924 2926 2928 2930 2932 2934 2936 2938 2940 2942 2944 2946 2948 2950 2953 2954 2956 2958 2960 2961 2963 2964 2965 2966 2967 2968 2970 2971 2972 2973 2974 2975 2977 2979 2981 2982 2983 2983 2984 2985 2987 2988 2990 2993 2996 2999 3000 3002 3003 3003
2934 2932 2931 2930 2928 2927 2925 2923 2922 2921 2920 2918 2917 2916 2915 2914 2913 2913 2913 2913 2913 2912 2912 2912 2912 2913 2913 2913 2914 2914 2914 2915 2916 2916 2917 2918 2920 2921 2923 2925 2927 2929 2930 2933 2935 2936 2938 2941 2943 2945 2946 2948 2950 2952 2954 2956 2957 2958 2959 2960 2961 2963 2964 2966 2967 2969 2970 2971 2973 2975 2976 2978 2978 2979 2980 2981 2982 2983 2984 2987 2991 2993 2994 2995 2996
2929 2927 2925 2923 2922 2921 2919 2918 2916 2914 2913 2912 2911 2910 2908 2907 2906 2906 2906 2906 2906 2906 2906 2906 2906 2906 2907 2907 2908 2908 2909 2909 2910 2911 2912 2913 2914 2915 2917 2918 2920 2922 2924 2925 2927 2929 2931 2933 2936 2937 2939 2941 2943 2945 2947 2949 2950 2951 2953 2954 2955 2957 2958 2960 2961 2963 2964 2966 2967 2969 2970 2971 2972 2973 2974 2975 2976 2977 2977 2978 2981 2984 2986 2988 2990
2925 2923 2920 2918 2916 2915 2914 2912 2910 2908 2907 2905 2904 2903 2902 2901 2900 2899 2899 2899 2899 2899 2899 2899 2899 2900 2901 2901 2902 2902 2903 2903 2904 2905 2906 2907 2908 2909 2911 2912 2914 2916 2918 2919 2921 2923 2925 2927 2928 2930 2932 2934 2936 2938 2940 2942 2943 2945 2946 2948 2949 2951 2952 2954 2955 2957 2958 2960 2961 2962 2964 2965 2966 2967 2967 2968 2969 2970 2971 2971 2972 2975 2979 2981 2983
2920 2918 2916 2913 2911 2909 2907 2906 2905 2903 2901 2899 2897 2895 2894 2894 2893 2892 2892 2891 2892 2892 2892 2893 2893 2893 2894 2895 2896 2896 2897 2898 2898 2899 2900 2901 2902 2904 2905 2907 2908 2910 2912 2914 2915 2917 2918 2920 2922 2924 2926 2928 2930 2931 2933 2935 2937 2939 2940 2941 2943 2944 2946 2947 2949 2950 2952 2953 2954 2956 2957 2958 2960 2961 2961 2961 2962 2963 2964 2965 2966 2968 2970 2972 2974
2914 2912 2910 2908 2906 2904 2902 2900 2899 2897 2896 2894 2892 2889 2887 2886 2886 2886 2885 2884 2884 2885 2885 2885 2886 2887 2887 2888 2889 2890 2891 2892 2892 2893 2894 2895 2896 2898 2899 2901 2902 2903 2905 2907 2909 2911 2912 2914 2916 2917 2919 2921 2923 2925 2927 2929 2931 2933 2934 2935 2936 2938 2939 2941 2942 2944 2945 2946 2948 2949 2950 2951 2953 2954 2954 2955 2956 2957 2958 2958 2959 2960 2961 2963 2965
2908 2906 2904 2902 2900 2898 2896 2894 2892 2891 2890 2888 2886 2884 2882 2880 2878 2878 2878 2877 2877 2877 2877 2878 2878 2879 2880 2881 2882 2883 2884 2885 2886 2887 2888 2889 2890 2892 2893 2895 2896 2898 2899 2901 2903 2905 2906 2908 2910 2911 2913 2915 2917 2919 2921 2923 2925 2926 2927 2929 2930 2932 2933 2934 2936 2938 2939 2939 2941 2942 2943 2945 2947 2948 2948 2949 2950 2951 2951 2951 2952 2952 2953 2954 2956
2904 2901 2899 2897 2894 2892 2890 2888 2886 2885 2883 2882 2880 2878 2876 2874 2872 2870 2870 2870 2870 2870 2870 2871 2871 2871 2873 2874 2875 2876 2877 2878 2880 2881 2882 2883 2884 2886 2888 2889 2891 2892 2894 2895 2897 2899 2900 2902 2904 2906 2907 2909 2911 2913 2915 2916 2918 2920 2921 2922 2924 2925 2926 2927 2929 2930 2931 2932 2934 2935 2935 2938 2940 2940 2941 2942 2943 2943 2944 2945 2945 2945 2945 2946 2948
2899 2897 2894 2892 2889 2887 2884 2882 2881 2879 2877 2875 2874 2872 2870 2868 2866 2864 2863 2863 2863 2863 2863 2863 2864 2864 2865 2866 2867 2869 2870 2871 2873 2874 2875 2876 2878 2880 2881 2883 2885 2886 2888 2890 2891 2893 2894 2896 2898 2900 2902 2903 2905 2906 2908 2910 2912 2913 2914 2915 2916 2918 2919 2920 2921 2923 2923 2925 2926 2927 2929 2931 2932 2933 2934 2935 2935 2936 2937 2937 2938 2938 2938 2939 2940
2894 2892 2889 2887 2884 2882 2879 2876 2875 2873 2871 2869 2867 2866 2864 2862 2860 2858 2856 2855 2855 2855 2856 2856 2856 2857 2858 2859 2860 2862 2863 2864 2866 2867 2868 2870 2872 2873 2875 2876 2878 2880 2882 2884 2885 2887 2888 2890 2892 2894 2896 2897 2899 2900 2902 2903 2905 2906 2907 2908 2909 2910 2911 2913 2914 2915 2916 2917 2918 2920 2922 2923 2924 2926 2927 2927 2928 2929 2929 2930 2931 2931 2931 2932 2934
2889 2887 2884 2882 2879 2877 2874 2871 2869 2868 2866 2863 2861 2859 2857 2855 2853 2851 2850 2849 2848 2848 2849 2849 2849 2850 2851 2852 2853 2854 2856 2857 2859 2860 2861 2863 2866 2867 2869 2870 2871 2874 2875 2877 2879 2880 2882 2884 2885 2887 2890 2891 2892 2893 2895 2896 2898 2899 2900 2901 2902 2903 2904 2906 2907 2908 2908 2909 2911 2913 2914 2915 2917 2919 2919 2920 2920 2921 2922 2923 2923 2924 2924 2925 2926
2884 2882 2879 2877 2874 2871 2868 2866 2864 2862 2860 2858 2855 2853 2851 2849 2847 2845 2843 2842 2841 2841 2842 2842 2843 2843 2844 2845 2846 2847 2849 2850 2852 2853 2855 2857 2859 2861 2862 2863 2865 2867 2869 2870 2872 2874 2875 2877 2878 2881 2883 2884 2885 2887 2888 2890 2891 2892 2893 2894 2895 2896 2897 2899 2900 2901 2902 2903 2904 2906 2907 2907 2909 2911 2912 2912 2913 2914 2915 2915 2916 2916 2916 2916 2917
2878 2875 2873 2871 2869 2866 2863 2860 2858 2856 2854 2852 2849 2847 2845 2843 2840 2838 2836 2836 2835 2835 2835 2836 2836 2837 2837 2838 2839 2840 2842 2844 2845 2847 2848 2850 2853 2854 2855 2857 2858 2860 2862 2864 2866 2867 2869 2870 2871 2874 2876 2877 2878 2880 2881 2882 2884 2885 2886 2887 2888 2890 2891 2892 2894 2894 2895 2896 2897 2899 2899 2900 2902 2903 2905 2905 2906 2907 2908 2908 2908 2908 2908 2909 2909
2871 2868 2866 2865 2863 2860 2857 2854 2852 2850 2848 2845 2843 2841 2839 2836 2834 2831 2829 2829 2829 2829 2829 2829 2830 2830 2831 2832 2833 2834 2835 2837 2839 2840 2842 2844 2846 2848 2849 2851 2853 2854 2855 2857 2859 2861 2862 2864 2865 2867 2868 2869 2871 2873 2874 2875 2877 2878 2879 2881 2882 2883 2884 2886 2887 2888 2888 2889 2890 2891 2893 2894 2894 2896 2897 2898 2899 2900 2900 2900 2901 2901 2901 2902 2903
2865 2862 2859 2857 2855 2853 2851 2848 2846 2843 2841 2838 2836 2834 2832 2830 2827 2825 2823 2822 2822 2823 2823 2823 2824 2824 2825 2826 2827 2828 2829 2831 2833 2834 2836 2837 2840 2842 2843 2845 2847 2848 2849 2851 2853 2854 2856 2857 2859 2860 2862 2863 2864 2865 2866 2868 2870 2871 2872 2874 2875 2876 2877 2879 2880 2881 2882 2883 2884 2885 2885 2887 2888 2889 2890 2891 2892 2893 2893 2894 2895 2895 2895 2896 2897
2859 2856 2853 2850 2848 2846 2844 2842 2839 2837 2834 2831 2829 2827 2825 2823 2821 2819 2817 2816 2816 2817 2817 2817 2818 2819 2820 2821 2822 2822 2824 2825 2827 2828 2830 2831 2834 2836 2838 2839 2841 2842 2843 2845 2846 2848 2849 2851 2852 2854 2855 2856 2858 2858 2859 2861 2863 2864 2865 2866 2868 2869 2870 2872 2873 2874 2875 2876 2877 2877 2878 2880 2881 2882 2883 2884 2884 2885 2887 2888 2888 2888 2889 2889 2890
2853 2849 2847 2844 2841 2838 2836 2835 2833 2830 2827 2824 2822 2820 2818 2816 2814 2812 2811 2811 2810 2811 2811 2812 2813 2814 2814 2815 2816 2817 2818 2819 2821 2823 2824 2826 2828 2831 2833 2834 2835 2836 2838 2839 2841 2842 2843 2845 2846 2848 2849 2850 2851 2852 2853 2854 2856 2857 2858 2860 2861 2862 2863 2865 2866 2867 2868 2869 2870 2870 2871 2872 2874 2875 2875 2877 2877 2878 2880 2881 2881 2881 2882 2883 2882
2846 2843 2840 2837 2834 2832 2829 2827 2825 2823 2820 2817 2815 2813 2811 2809 2807 2806 2805 2805 2805 2805 2806 2806 2807 2808 2809 2810 2811 2812 2813 2814 2816 2817 2819 2821 2822 2825 2827 2828 2829 2831 2832 2833 2835 2836 2837 2840 2841 2842 2843 2845 2846 2847 2847 2848 2850 2851 2852 2854 2855 2855 2856 2858 2859 2860 2862 2863 2863 2864 2865 2866 2867 2868 2869 2870 2871 2871 2872 2874 2874 2874 2875 2875 2875
2838 2835 2832 2830 2827 2824 2822 2820 2818 2816 2813 2811 2808 2806 2804 2803 2801 2800 2800 2799 2800 2800 2800 2801 2802 2803 2804 2805 2806 2807 2808 2809 2811 2812 2814 2816 2817 2819 2821 2823 2824 2825 2826 2828 2829 2830 2832 2834 2836 2837 2838 2839 2840 2841 2842 2843 2844 2846 2847 2848 2849 2850 2851 2852 2853 2854 2856 2856 2857 2858 2859 2860 2861 2862 2863 2864 2864 2864 2865 2866 2866 2867 2867 2868 2869
2831 2827 2824 2821 2819 2817 2814 2812 2810 2808 2806 2804 2801 2799 2798 2797 2796 2795 2794 2794 2795 2795 2795 2796 2797 2798 2799 2800 2802 2803 2804 2805 2806 2808 2809 2811 2812 2814 2815 2817 2819 2820 2821 2823 2824 2825 2827 2829 2830 2831 2832 2833 2835 2836 2837 2838 2839 2841 2841 2842 2843 2845 2846 2846 2847 2848 2849 2850 2851 2852 2853 2854 2855 2856 2857 2857 2858 2858 2859 2860 2860 2861 2861 2861 2861
2822 2819 2815 2813 2810 2808 2806 2804 2802 2800 2799 2797 2795 2794 2793 2792 2791 2790 2790 2789 2790 2790 2791 2791 2792 2793 2795 2796 2797 2798 2800 2801 2802 2803 2804 2806 2807 2809 2811 2813 2814 2816 2817 2818 2819 2821 2823 2824 2825 2826 2827 2828 2830 2831 2832 2833 2834 2835 2836 2837 2838 2839 2839 2840 2841 2842 2843 2844 2845 2846 2847 2848 2849 2849 2850 2851 2852 2853 2854 2855 2855 2855 2855 2855 2855
2814 2811 2808 2805 2803 2801 2798 2797 2795 2794 2793 2791 2790 2788 2788 2787 2787 2786 2786 2785 2785 2786 2786 2787 2788 2789 2790 2791 2793 2795 2796 2797 2798 2799 2800 2802 2803 2805 2806 2808 2810 2811 2813 2814 2815 2816 2818 2819 2820 2822 2823 2824 2825 2826 2827 2828 2829 2830 2830 2831 2832 2833 2834 2835 2836 2837 2838 2838 2839 2840 2841 2842 2843 2843 2844 2845 2846 2847 2848 2849 2849 2850 2849 2849 2849
2808 2805 2802 2799 2797 2795 2793 2791 2790 2789 2788 2786 2785 2784 2783 2783 2783 2782 2782 2782 2782 2782 2783 2783 2784 2786 2787 2787 2789 2791 2792 2793 2794 2795 2797 2798 2800 2801 2803 2804 2806 2807 2809 2810 2811 2812 2813 2815 2816 2817 2818 2819 2820 2821 2822 2823 2824 2825 2826 2827 2828 2828 2829 2830 2830 2831 2832 2832 2833 2834 2834 2835 2837 2838 2839 2840 2840 2841 2841 2842 2842 2843 2843 2844 2844
2802 2800 2797 2794 2792 2790 2788 2786 2785 2784 2783 2782 2781 2780 2780 2779 2779 2779 2779 2778 2779 2779 2780 2781 2781 2782 2784 2784 2785 2787 2789 2790 2791 2792 2794 2795 2796 2798 2799 2801 2802 2803 2805 2806 2807 2808 2809 2810 2811 2812 2813 2814 2815 2816 2817 2818 2819 2820 2821 2822 2823 2824 2824 2825 2825 2826 2826 2827 2828 2828 2828 2829 2831 2832 2833 2834 2834 2835 2835 2835 2835 2836 2836 2838 2838
2798 2795 2792 2790 2788 2786 2784 2782 2781 2780 2779 2778 2777 2777 2777 2776 2776 2776 2776 2776 2776 2777 2777 2778 2779 2780 2781 2782 2783 2784 2785 2786 2788 2789 2791 2792 2793 2795 2796 2797 2799 2800 2801 2802 2804 2805 2805 2806 2807 2808 2809 2810 2811 2812 2813 2813 2814 2815 2816 2817 2818 2818 2819 2820 2820 2821 2821 2821 2822 2823 2823 2824 2824 2825 2826 2827 2828 2828 2829 2829 2829 2829 2829 2830 2831
2793 2791 2788 2786 2784 2782 2781 2779 2778 2776 2776 2775 2774 2774 2774 2773 2773 2773 2773 2773 2774 2774 2775 2775 2776 2777 2778 2779 2780 2781 2782 2783 2785 2787 2787 2788 2790 2791 2793 2794 2795 2796 2797 2799 2800 2801 2801 2802 2804 2805 2806 2807 2808 2808 2808 2809 2809 2810 2811 2812 2813 2813 2813 2814 2814 2815 2816 2816 2817 2817 2818 2818 2818 2818 2819 2820 2821 2821 2822 2823 2823 2823 2823 2823 2822
2790 2788 2785 2783 2781 2779 2778 2776 2775 2774 2773 2772 2772 2772 2771 2771 2771 2771 2771 2771 2771 2772 2773 2773 2774 2774 2776 2777 2778 2778 2779 2781 2783 2784 2784 2785 2787 2789 2790 2791 2792 2793 2794 2795 2796 2797 2798 2799 2800 2801 2802 2803 2804 2804 2804 2805 2805 2806 2807 2807 2808 2808 2808 2809 2809 2810 2810 2811 2811 2812 2812 2812 2812 2812 2813 2814 2814 2814 2815 2816 2816 2817 2817 2816 2816
2787 2785 2783 2781 2779 2777 2775 2774 2773 2771 2771 2770 2770 2769 2769 2769 2769 2769 2769 2769 2770 2770 2770 2771 2771 2773 2774 2775 2775 2776 2777 2779 2780 2781 2781 2782 2784 2786 2787 2788 2789 2790 2790 2791 2793 2794 2795 2796 2797 2797 2798 2799 2799 2800 2800 2800 2801 2801 2802 2803 2803 2803 2804 2804 2805 2805 2805 2805 2806 2806 2807 2807 2807 2807 2808 2808 2808 2809 2809 2809 2810 2810 2810 2810 2810
2785 2783 2781 2779 2777 2775 2774 2772 2771 2770 2769 2768 2768 2767 2767 2767 2767 2767 2767 2767 2768 2768 2769 2769 2770 2771 2772 2773 2773 2774 2775 2776 2777 2778 2779 2780 2781 2783 2784 2784 2786 2786 2787 2788 2789 2790 2791 2792 2793 2793 2794 2794 2795 2795 2795 2796 2796 2796 2796 2796 2798 2799 2799 2799 2799 2799 2799 2799 2800 2801 2801 2802 2802 2802 2802 2803 2803 2803 2803 2803 2804 2804 2804 2804 2804
2784 2781 2779 2777 2776 2774 2772 2771 2770 2769 2768 2767 2766 2766 2765 2765 2766 2766 2766 2766 2766 2767 2767 2767 2768 2769 2770 2771 2771 2772 2773 2774 2775 2775 2776 2777 2779 2780 2780 2781 2782 2783 2783 2785 2786 2787 2787 2788 2789 2789 2790 2790 2790 2791 2791 2791 2791 2791 2790 2790 2791 2793 2794 2794 2793 2793 2793 2794 2794 2795 2795 2796 2796 2796 2796 2797 2797 2797 2797 2797 2798 2798 2798 2799 2798
2783 2780 2778 2776 2774 2773 2771 2770 2768 2767 2766 2765 2765 2764 2764 2764 2764 2764 2764 2764 2764 2765 2765 2766 2766 2767 2768 2769 2770 2770 2771 2772 2773 2773 2773 2775 2776 2777 2777 2778 2779 2780 2780 2781 2782 2783 2783 2784 2785 2785 2786 2786 2787 2787 2787 2787 2787 2786 2786 2786 2786 2787 2788 2788 2788 2788 2788 2788 2788 2789 2790 2790 2791 2791 2791 2791 2791 2792 2792 2792 2792 2792 2793 2793 2793
2781 2779 2777 2775 2773 2771 2770 2768 2767 2766 2765 2764 2763 2763 2762 2762 2762 2762 2763 2763 2763 2763 2764 2764 2764 2765 2766 2767 2768 2768 2769 2769 2770 2770 2771 2772 2773 2773 2774 2775 2776 2777 2777 2778 2778 2779 2780 2781 2781 2782 2782 2783 2783 2783 2783 2783 2783 2782 2782 2782 2782 2782 2783 2783 2783 2783 2783 2783 2784 2784 2785 2785 2786 2786 2786 2786 2786 2787 2787 2787 2787 2787 2787 2787 2787
2780 2778 2776 2774 2772 2770 2769 2767 2766 2765 2764 2763 2762 2761 2761 2760 2760 2760 2761 2761 2761 2762 2762 2762 2762 2763 2764 2764 2765 2766 2766 2767 2767 2768 2769 2770 2770 2770 2771 2772 2773 2773 2774 2775 2775 2776 2776 2777 2778 2778 2778 2779 2779 2779 2779 2779 2779 2779 2778 2778 2778 2779 2779 2779 2779 2779 2779 2780 2780 2780 2780 2780 2781 2781 2781 2781 2782 2782 2782 2783 2783 2782 2782 2782 2782
2778 2776 2774 2772 2770 2769 2767 2766 2764 2763 2762 2761 2760 2760 2759 2759 2758 2758 2758 2759 2759 2760 2760 2761 2761 2761 2761 2762 2763 2763 2764 2764 2765 2765 2766 2767 2768 2768 2768 2769 2770 2770 2771 2771 2772 2772 2772 2773 2773 2773 2774 2774 2774 2775 2775 2775 2775 2774 2774 2774 2774 2775 2775 2775 2775 2775 2775 2776 2776 2776 2776 2776 2776 2777 2777 2777 2778 2778 2778 2778 2778 2778 2778 2777 2777
2776 2774 2772 2770 2768 2767 2765 2764 2763 2761 2760 2759 2759 2758 2757 2757 2756 2756 2756 2756 2757 2757 2758 2758 2759 2759 2760 2760 2760 2761 2761 2762 2762 2763 2764 2764 2764 2765 2765 2766 2766 2767 2767 2768 2769 2769 2769 2769 2769 2769 2769 2769 2770 2770 2770 2771 2770 2770 2770 2770 2770 2771 2771 2771 2771 2771 2771 2771 2771 2772 2772 2772 2772 2772 2773 2773 2774 2774 2774 2773 2773 2773 2773 2773 2772
2774 2772 2770 2768 2766 2764 2763 2762 2760 2759 2758 2757 2757 2756 2755 2755 2754 2754 2754 2754 2754 2755 2755 2755 2756 2756 2757 2758 2758 2758 2759 2759 2760 2760 2761 2761 2761 2762 2762 2762 2763 2763 2763 2764 2765 2765 2765 2765 2766 2766 2765 2765 2765 2765 2765 2766 2766 2766 2765 2765 2766 2766 2766 2766 2766 2766 2767 2767 2767 2767 2768 2768 2768 2769 2769 2769 2769 2770 2770 2769 2769 2768 2768 2768 2767
2772 2769 2767 2765 2763 2762 2760 2759 2758 2757 2756 2755 2754 2754 2753 2753 2752 2752 2752 2752 2752 2752 2752 2753 2753 2753 2754 2754 2755 2755 2756 2756 2757 2757 2758 2758 2758 2758 2758 2759 2759 2759 2759 2760 2760 2761 2761 2761 2762 2761 2761 2761 2761 2760 2760 2761 2761 2761 2761 2761 2761 2762 2762 2762 2762 2762 2763 2763 2764 2764 2764 2764 2764 2765 2765 2765 2765 2765 2765 2765 2765 2765 2764 2764 2763
2768 2766 2764 2762 2760 2759 2758 2756 2755 2754 2753 2752 2752 2751 2751 2750 2750 2750 2749 2749 2749 2749 2750 2750 2750 2750 2751 2751 2751 2752 2752 2752 2753 2753 2754 2754 2755 2755 2755 2755 2756 2756 2756 2756 2757 2757 2757 2757 2757 2757 2757 2757 2756 2756 2756 2756 2757 2757 2757 2757 2757 2758 2758 2759 2758 2758 2758 2759 2760 2760 2760 2760 2760 2761 2761 2761 2761 2761 2761 2761 2760 2760 2760 2760 2760
2765 2763 2761 2759 2757 2756 2754 2753 2752 2751 2750 2749 2748 2748 2747 2747 2747 2747 2747 2747 2747 2747 2747 2747 2747 2748 2748 2748 2748 2749 2749 2749 2750 2750 2750 2751 2751 2752 2752 2752 2752 2753 2753 2753 2754 2754 2754 2754 2754 2754 2754 2753 2753 2753 2753 2753 2753 2753 2753 2753 2754 2754 2754 2754 2755 2754 2755 2755 2756 2756 2756 2756 2757 2757 2757 2757 2757 2757 2757 2757 2757 2757 2757 2757 2757
2761 2759 2757 2756 2754 2752 2751 2749 2748 2747 2746 2746 2745 2745 2744 2744 2743 2743 2743 2743 2743 2743 2744 2744 2744 2745 2745 2745 2746 2746 2747 2747 2747 2747 2748 2748 2748 2749 2749 2749 2749 2749 2750 2750 2750 2750 2751 2751 2751 2751 2751 2750 2750 2749 2749 2749 2749 2749 2749 2749 2750 2750 2750 2750 2751 2751 2751 2752 2752 2752 2753 2753 2753 2753 2753 2754 2754 2754 2754 2754 2754 2754 2754 2754 2754
2756 2755 2753 2752 2750 2749 2747 2746 2744 2743 2743 2742 2741 2741 2740 2740 2740 2740 2739 2739 2740 2740 2740 2740 2741 2741 2742 2742 2742 2742 2743 2744 2744 2744 2744 2745 2745 2745 2745 2746 2746 2746 2746 2746 2746 2747 2747 2747 2747 2747 2747 2746 2746 2746 2746 2745 2745 2745 2745 2745 2746 2746 2747 2746 2747 2748 2748 2748 2748 2749 2749 2749 2750 2750 2750 2750 2751 2751 2751 2751 2751 2751 2751 2751 2751
2752 2750 2749 2747 2745 2744 2743 2741 2740 2739 2738 2738 2737 2736 2736 2736 2735 2735 2735 2735 2735 2735 2735 2736 2736 2737 2737 2738 2738 2739 2739 2740 2740 2740 2741 2741 2741 2741 2742 2742 2742 2742 2742 2742 2743 2743 2743 2743 2743 2743 2743 2743 2742 2742 2742 2742 2742 2742 2742 2742 2742 2742 2743 2743 2743 2744 2745 2745 2745 2746 2746 2747 2747 2747 2747 2747 2747 2748 2748 2748 2748 2749 2748 2748 2748
2747 2745 2743 2742 2740 2739 2738 2737 2736 2735 2734 2733 2733 2732 2731 2731 2731 2731 2731 2730 2730 2731 2731 2731 2732 2732 2733 2734 2734 2735 2735 2736 2736 2737 2737 2737 2738 2738 2738 2739 2739 2739 2739 2739 2739 2739 2739 2739 2740 2739 2739 2739 2739 2738 2738 2738 2738 2738 2738 2738 2738 2739 2739 2740 2740 2741 2742 2742 2742 2743 2743 2744 2744 2744 2744 2745 2745 2745 2746 2746 2746 2746 2746 2746 2746
2742 2740 2738 2737 2735 2734 2733 2732 2731 2730 2729 2729 2728 2728 2727 2727 2726 2726 2726 2726 2726 2726 2726 2727 2727 2728 2728 2729 2730 2731 2731 2732 2732 2733 2733 2734 2734 2734 2734 2735 2735 2735 2735 2736 2736 2736 2736 2736 2736 2736 2735 2735 2735 2735 2735 2735 2734 2734 2735 2735 2735 2735 2736 2737 2737 2738 2739 2739 2740 2740 2740 2741 2741 2741 2742 2742 2743 2743 2744 2744 2744 2745 2745 2744 2744
2737 2735 2733 2731 2730 2728 2727 2726 2725 2725 2724 2724 2723 2723 2723 2722 2722 2722 2722 2722 2722 2722 2722 2722 2723 2723 2724 2725 2725 2726 2727 2728 2728 2729 2729 2730 2730 2730 2731 2731 2731 2732 2732 2732 2732 2732 2732 2732 2732 2732 2732 2732 2731 2731 2731 2731 2731 2731 2731 2732 2732 2733 2733 2734 2735 2735 2736 2737 2737 2738 2738 2739 2739 2739 2740 2740 2741 2742 2742 2743 2743 2743 2743 2743 2742
2732 2730 2728 2726 2724 2723 2722 2721 2720 2719 2718 2718 2718 2718 2718 2717 2717 2717 2717 2717 2717 2718 2718 2718 2718 2719 2720 2720 2721 2722 2722 2723 2724 2724 2725 2726 2726 2726 2726 2727 2727 2728 2728 2728 2728 2728 2728 2729 2729 2728 2728 2728 2728 2728 2728 2728 2728 2728 2728 2729 2730 2730 2731 2731 2732 2733 2734 2734 2735 2736 2736 2737 2737 2738 2738 2739 2740 2740 2741 2742 2742 2742 2741 2741 2740
2727 2725 2723 2721 2719 2718 2716 2715 2714 2713 2713 2712 2712 2712 2712 2712 2712 2712 2712 2712 2713 2713 2713 2713 2714 2714 2715 2715 2716 2717 2718 2718 2719 2720 2721 2721 2722 2722 2722 2723 2723 2724 2724 2724 2724 2725 2725 2725 2725 2725 2725 2725 2725 2725 2725 2725 2725 2725 2726 2727 2727 2728 2728 2729 2730 2731 2732 2732 2733 2734 2735 2735 2736 2737 2737 2738 2739 2740 2740 2740 2740 2740 2740 2739 2738
2722 2720 2718 2716 2714 2713 2711 2710 2709 2708 2707 2707 2706 2706 2706 2706 2706 2707 2707 2707 2707 2708 2708 2708 2709 2709 2710 2711 2711 2712 2713 2714 2714 2715 2716 2717 2717 2718 2718 2718 2719 2720 2720 2720 2721 2721 2721 2722 2722 2722 2722 2722 2722 2722 2722 2722 2723 2723 2723 2724 2725 2726 2726 2727 2728 2729 2730 2731 2731 2732 2733 2734 2735 2736 2737 2738 2738 2739 2739 2739 2739 2738 2738 2737 2736